Zurück zum Katalog

SL-16 DEB

AktivLEO
NORAD 23408·DEBRIS·🇷🇺 Russia

Gestartet Nov 24, 1994 von Baikonur Cosmodrome

Loading…

Nächste Überflüge (nächste 24 Stunden)

TLE

AktuellSource: Space-Track

Epoche: Sep 14, 2026, 17:51 UTC

1 23408U 94077E   26257.74424390  .00000037  00000-0  76125-4 0  9994
2 23408  70.9827 262.6147 0215492 265.2076 271.7203 13.71357225590991

Verfolge SL-16 DEB in Echtzeit mit AllMySat

Download on the App Store